Location: Andrest
(43.3200°N, 0.0641°E)
Time: 03:55:42
(UTC+00:00)

COSMO-SKYMED 1 - Pass Details

Date: 20 April 2021
Orbit: 621 x 623 km, 97.9° (Epoch: 18 May)

Event Time Altitude Azimuth Distance (km) Brightness Sun altitude
Rises 19:21:25 0° 356° (N) 2,913 6.4 -6.4°
Reaches altitude 10° 19:24:14 10° 337° (NNW) 2,000 5.9 -6.9°
Maximum altitude 19:27:02 17° 296° (WNW) 1,583 6.1 -7.3°
Drops below altitude 10° 19:29:49 10° 256° (WSW) 1,991 6.0 -7.8°
Sets 19:32:38 0° 236° (WSW) 2,891 6.5 -8.3°
